DW6954 Weather Reports


time (UTC)temp
C
wind
direction
speed
KPH
gust
KPH
rain 1hr
cm
rain 24hr
cm
rain mn
cm
humidity
%
barometer
mb
20260510011506 15 294 1.6 8.0 0.00 0.03 0.00 74 1027.9
20260510011005 15 195 0.0 4.8 0.00 0.03 0.00 75 1027.9
20260510010505 15 238 0.0 4.8 0.00 0.03 0.00 75 1027.9
20260510010003 15 200 0.0 6.4 0.00 0.03 0.00 75 1027.9
20260510005502 15 296 0.0 6.4 0.00 0.03 0.00 76 1027.8
20260510005003 15 285 0.0 3.2 0.00 0.03 0.00 77 1027.9
20260510004002 15 167 0.0 3.2 0.00 0.03 0.00 78 1027.9
20260510003502 15 289 0.0 1.6 0.00 0.03 0.00 79 1027.9
20260510003003 15 297 0.0 1.6 0.00 0.03 0.00 78 1027.9
20260510002503 15 296 0.0 3.2 0.00 0.03 0.00 77 1028.0
20260510002001 15 270 0.0 3.2 0.00 0.03 0.00 76 1027.8
20260510001502 15 259 0.0 1.6 0.00 0.03 0.00 75 1027.9
20260510001002 15 259 0.0 1.6 0.00 0.03 0.00 74 1027.9
20260510000601 15 223 0.0 1.6 0.00 0.03 0.00 73 1027.9
20260510000501 15 270 0.0 1.6 0.00 0.03 0.00 73 1027.9
20260510000100 15 254 0.0 1.6 0.00 0.03 0.00 73 1027.8
20260509235602 15 260 0.0 3.2 0.00 0.05 0.00 73 1027.8
20260509235101 15 165 0.0 3.2 0.00 0.05 0.00 73 1027.8
20260509234558 15 161 0.0 3.2 0.00 0.05 0.00 73 1027.8
20260509234058 15 168 0.0 3.2 0.00 0.05 0.00 73 1027.8
20260509233559 15 157 0.0 3.2 0.00 0.05 0.00 74 1027.7
20260509233057 15 164 0.0 3.2 0.00 0.05 0.00 74 1027.8
20260509232557 15 159 0.0 3.2 0.00 0.05 0.00 74 1027.8
20260509232056 15 173 0.0 1.6 0.00 0.05 0.00 75 1027.8
20260509231606 14 223 0.0 1.6 0.00 0.05 0.00 76 1027.8
20260509231056 14 253 0.0 1.6 0.00 0.05 0.00 77 1027.8
20260509230557 14 185 0.0 1.6 0.00 0.05 0.00 78 1027.7
20260509230052 14 194 0.0 1.6 0.00 0.05 0.00 78 1027.7
20260509225551 13 196 0.0 1.6 0.00 0.05 0.00 79 1027.7
20260509225049 13 185 0.0 1.6 0.00 0.05 0.00 79 1027.7
20260509224548 13 185 0.0 1.6 0.00 0.05 0.00 80 1027.7
20260509223547 13 157 0.0 1.6 0.00 0.05 0.00 83 1027.5
20260509223050 13 157 0.0 3.2 0.00 0.05 0.00 85 1027.5
20260509222549 12 146 0.0 3.2 0.00 0.05 0.00 86 1027.5
20260509222045 12 178 0.0 1.6 0.00 0.05 0.00 87 1027.5
20260509221546 12 186 0.0 0.0 0.00 0.05 0.00 88 1027.4
20260509221043 12 184 0.0 0.0 0.00 0.05 0.00 89 1027.3
20260509220546 12 185 0.0 0.0 0.00 0.05 0.00 89 1027.2
20260509220044 12 185 0.0 0.0 0.00 0.05 0.00 89 1027.2
20260509215545 12 185 0.0 0.0 0.00 0.08 0.00 89 1027.2
20260509215041 12 185 0.0 0.0 0.00 0.08 0.00 89 1027.1
20260509214541 12 185 0.0 0.0 0.00 0.08 0.00 89 1027.0
20260509214043 12 185 0.0 0.0 0.00 0.08 0.00 89 1026.9
20260509213539 12 185 0.0 0.0 0.00 0.08 0.00 89 1026.9
20260509213039 12 185 0.0 0.0 0.00 0.08 0.00 89 1026.8
20260509212538 12 172 0.0 0.0 0.00 0.08 0.00 89 1026.8
20260509212037 12 172 0.0 0.0 0.00 0.08 0.00 89 1026.7
20260509211537 12 172 0.0 0.0 0.00 0.08 0.00 89 1026.7
20260509211037 12 172 0.0 0.0 0.00 0.08 0.00 88 1026.5
20260509210536 12 172 0.0 0.0 0.00 0.08 0.00 88 1026.5
20260509210047 12 172 0.0 0.0 0.00 0.08 0.00 88 1026.5
20260509205534 12 172 0.0 0.0 0.00 0.08 0.00 88 1026.4
20260509205035 12 172 0.0 0.0 0.00 0.08 0.00 88 1026.4
20260509204534 12 172 0.0 0.0 0.00 0.08 0.00 88 1026.3
20260509204033 12 172 0.0 0.0 0.00 0.08 0.00 88 1026.3
20260509203034 12 172 0.0 0.0 0.00 0.08 0.00 87 1026.2
20260509202534 12 172 0.0 0.0 0.00 0.08 0.00 87 1026.1
20260509202032 12 172 0.0 0.0 0.00 0.08 0.00 87 1026.1
20260509201531 12 172 0.0 1.6 0.00 0.08 0.00 87 1026.1
20260509201030 12 172 0.0 3.2 0.00 0.08 0.00 88 1026.0
20260509200532 12 180 0.0 3.2 0.00 0.08 0.00 88 1026.0
20260509200031 12 180 0.0 3.2 0.00 0.08 0.00 88 1025.9
20260509195531 12 166 0.0 1.6 0.00 0.10 0.00 88 1025.9
20260509195028 12 176 0.0 1.6 0.00 0.10 0.00 89 1025.9
20260509194528 12 177 0.0 3.2 0.00 0.10 0.00 89 1025.8
20260509194028 12 176 0.0 1.6 0.00 0.10 0.00 89 1025.7
20260509193525 12 179 0.0 1.6 0.00 0.10 0.00 89 1025.7
20260509193026 12 179 0.0 1.6 0.00 0.10 0.00 90 1025.7
20260509192525 12 211 0.0 1.6 0.00 0.10 0.00 90 1025.6
20260509192025 12 211 0.0 1.6 0.00 0.10 0.00 90 1025.6
20260509191527 12 211 0.0 1.6 0.00 0.10 0.00 90 1025.5
20260509191025 12 246 0.0 0.0 0.00 0.10 0.00 90 1025.5
20260509190522 12 255 0.0 0.0 0.00 0.10 0.00 90 1025.4
20260509190022 12 255 0.0 0.0 0.00 0.10 0.00 90 1025.4
20260509185524 12 255 0.0 0.0 0.00 0.15 0.00 90 1025.3
20260509185021 12 256 0.0 0.0 0.00 0.15 0.00 90 1025.2
20260509184532 12 256 0.0 0.0 0.00 0.15 0.00 90 1025.2
20260509184020 12 256 0.0 0.0 0.00 0.15 0.00 90 1025.2
20260509183520 12 256 0.0 0.0 0.00 0.15 0.00 90 1025.1
20260509183020 12 256 0.0 0.0 0.00 0.15 0.00 90 1025.1
20260509182519 12 256 0.0 0.0 0.00 0.15 0.00 90 1025.1
20260509182019 12 256 0.0 0.0 0.00 0.15 0.00 90 1025.0
20260509181520 12 257 0.0 0.0 0.00 0.15 0.00 90 1024.9
20260509181019 12 256 0.0 1.6 0.00 0.15 0.00 90 1024.9
20260509180518 12 257 0.0 3.2 0.00 0.15 0.00 90 1024.8
20260509180022 12 154 0.0 3.2 0.00 0.15 0.00 90 1024.8
20260509175518 12 165 0.0 3.2 0.00 0.18 0.00 90 1024.8
20260509175017 12 167 0.0 3.2 0.00 0.18 0.00 90 1024.8
20260509174518 12 168 0.0 3.2 0.00 0.18 0.00 90 1024.8
20260509174017 12 188 0.0 4.8 0.00 0.18 0.00 91 1024.9
20260509173517 12 189 0.0 4.8 0.00 0.18 0.00 91 1024.8
20260509173120 12 195 0.0 3.2 0.00 0.18 0.00 91 1024.8
20260509172517 12 185 0.0 6.4 0.00 0.18 0.00 91 1024.8
20260509172017 12 265 1.6 6.4 0.00 0.18 0.00 91 1024.8
20260509171523 12 175 0.0 1.6 0.00 0.18 0.00 91 1024.9
20260509171015 12 166 0.0 1.6 0.00 0.18 0.00 91 1024.8
20260509170515 12 175 0.0 1.6 0.00 0.18 0.00 92 1024.9
20260509170017 12 176 0.0 0.0 0.00 0.18 0.00 92 1024.9
20260509165513 12 176 0.0 0.0 0.00 0.23 0.00 92 1024.9
20260509165014 12 176 0.0 0.0 0.00 0.23 0.00 91 1024.9
20260509164516 12 177 0.0 0.0 0.00 0.23 0.00 92 1024.9
20260509164014 12 177 0.0 0.0 0.00 0.23 0.00 91 1024.9
20260509163512 12 176 0.0 0.0 0.00 0.23 0.00 91 1025.0
20260509163021 12 177 0.0 0.0 0.00 0.23 0.00 91 1025.0
20260509162512 12 176 0.0 0.0 0.00 0.23 0.00 91 1025.0
20260509162010 12 176 0.0 0.0 0.00 0.23 0.00 91 1025.0
20260509161511 12 177 0.0 3.2 0.00 0.23 0.00 91 1025.0
20260509161011 13 176 0.0 3.2 0.00 0.23 0.00 91 1025.0
20260509160510 13 259 0.0 3.2 0.00 0.23 0.00 91 1025.0
20260509160016 13 210 0.0 3.2 0.00 0.23 0.00 91 1025.1
20260509155508 13 180 0.0 4.8 0.00 0.23 0.00 91 1025.0
20260509155012 13 177 0.0 3.2 0.00 0.23 0.00 91 1024.9
20260509154508 13 282 0.0 3.2 0.00 0.23 0.00 91 1024.9
20260509154008 13 281 0.0 6.4 0.00 0.23 0.00 91 1025.0
20260509153508 13 286 0.0 6.4 0.00 0.23 0.00 91 1025.0
20260509153011 13 323 0.0 4.8 0.00 0.23 0.00 90 1025.0
20260509152006 13 261 0.0 3.2 0.00 0.23 0.00 90 1024.9
20260509151506 13 182 0.0 4.8 0.00 0.23 0.00 90 1024.9
20260509151008 13 182 0.0 6.4 0.00 0.23 0.00 91 1025.0
20260509150505 13 181 0.0 4.8 0.00 0.23 0.00 91 1025.0
20260509150008 13 258 0.0 4.8 0.00 0.23 0.00 91 1024.9
20260509145504 13 180 0.0 4.8 0.00 0.23 0.00 91 1025.0
20260509145002 13 2 0.0 3.2 0.00 0.23 0.00 91 1025.0
20260509144502 13 166 0.0 3.2 0.00 0.23 0.00 91 1024.9
20260509144002 13 294 0.0 1.6 0.00 0.23 0.00 91 1024.9
20260509143503 13 271 0.0 1.6 0.00 0.23 0.00 91 1024.9
20260509143000 13 258 0.0 1.6 0.00 0.23 0.00 91 1024.9
20260509142603 13 258 0.0 1.6 0.00 0.23 0.00 91 1024.9
20260509142101 13 186 0.0 1.6 0.00 0.23 0.00 91 1024.9
20260509141559 13 234 0.0 1.6 0.00 0.23 0.00 91 1024.9
20260509141059 13 180 0.0 1.6 0.00 0.23 0.00 91 1024.9
20260509140559 13 180 0.0 4.8 0.00 0.23 0.00 91 1024.9
20260509140058 13 180 0.0 3.2 0.00 0.23 0.00 91 1024.9
20260509135557 13 183 0.0 1.6 0.00 0.23 0.00 91 1024.9
20260509135101 13 176 0.0 3.2 0.00 0.23 0.00 91 1024.9
20260509134557 13 187 0.0 3.2 0.00 0.23 0.00 91 1024.9
20260509134057 13 183 0.0 1.6 0.00 0.23 0.00 91 1024.8
20260509133557 13 140 0.0 1.6 0.00 0.23 0.00 91 1024.9
20260509133058 13 241 0.0 1.6 0.00 0.23 0.00 90 1024.9
20260509132555 13 184 0.0 0.0 0.00 0.23 0.00 90 1024.9
20260509132156 13 184 0.0 1.6 0.00 0.23 0.00 90 1024.9
20260509131603 13 183 0.0 1.6 0.00 0.23 0.00 90 1025.0
20260509131053 13 176 0.0 1.6 0.00 0.23 0.00 90 1025.0
20260509130554 13 286 0.0 3.2 0.00 0.23 0.00 90 1025.0
20260509130125 13 189 0.0 3.2 0.00 0.23 0.00 90 1025.0
20260509125553 13 188 0.0 4.8 0.00 0.23 0.00 90 1025.0
20260509125052 13 194 0.0 4.8 0.00 0.23 0.00 90 1025.0
20260509124553 13 283 0.0 3.2 0.00 0.23 0.00 90 1025.0
20260509124052 13 188 0.0 1.6 0.00 0.23 0.00 89 1025.0
20260509123553 13 188 0.0 3.2 0.00 0.23 0.00 89 1025.0
20260509123118 13 177 0.0 1.6 0.00 0.23 0.00 89 1025.0
20260509122550 13 286 0.0 3.2 0.00 0.23 0.00 89 1025.0
20260509122050 13 284 0.0 6.4 0.00 0.23 0.00 89 1025.1
20260509121551 13 123 0.0 6.4 0.00 0.23 0.00 89 1025.1
20260509121049 13 276 0.0 3.2 0.00 0.23 0.00 90 1025.1
20260509120548 13 290 0.0 6.4 0.00 0.23 0.00 90 1025.0
20260509120050 13 301 0.0 1.6 0.00 0.23 0.00 90 1025.1
20260509115547 13 207 0.0 1.6 0.00 0.23 0.23 90 1025.1
20260509115047 13 296 0.0 1.6 0.00 0.23 0.23 90 1025.1
20260509114614 13 226 0.0 3.2 0.00 0.23 0.23 90 1025.0
20260509114045 13 281 0.0 4.8 0.00 0.23 0.23 91 1025.0
20260509113545 13 270 0.0 4.8 0.00 0.23 0.23 91 1024.9
20260509113046 13 287 0.0 4.8 0.00 0.23 0.23 91 1024.9
20260509112549 13 287 0.0 4.8 0.00 0.23 0.23 91 1024.9
20260509112044 12 286 0.0 1.6 0.00 0.23 0.23 91 1024.9
20260509111044 12 280 0.0 3.2 0.00 0.23 0.23 91 1024.9
20260509110543 12 280 0.0 3.2 0.00 0.23 0.23 92 1024.8
20260509110053 12 277 0.0 0.0 0.00 0.23 0.23 91 1024.8
20260509105543 12 200 0.0 0.0 0.00 0.23 0.23 92 1024.8
20260509105043 12 200 0.0 0.0 0.00 0.23 0.23 92 1024.8
20260509104543 12 200 0.0 0.0 0.00 0.23 0.23 91 1024.9
20260509104045 12 200 0.0 0.0 0.00 0.23 0.23 91 1024.8
20260509103542 12 200 0.0 0.0 0.00 0.23 0.23 91 1024.8
20260509103044 12 200 0.0 0.0 0.00 0.23 0.23 91 1024.8
20260509102542 12 200 0.0 0.0 0.00 0.23 0.23 91 1024.8
20260509102043 12 200 0.0 0.0 0.00 0.23 0.23 91 1024.9
20260509101553 12 200 0.0 0.0 0.00 0.23 0.23 91 1024.9
20260509101042 12 200 0.0 0.0 0.00 0.23 0.23 91 1024.9
20260509100542 12 199 0.0 0.0 0.00 0.23 0.23 91 1024.9
20260509100041 12 200 0.0 0.0 0.00 0.23 0.23 91 1024.9
20260509095541 11 200 0.0 0.0 0.00 0.23 0.23 91 1024.9
20260509095041 11 200 0.0 1.6 0.00 0.23 0.23 91 1024.9
20260509094540 11 200 0.0 1.6 0.00 0.23 0.23 91 1024.9
20260509094039 11 178 0.0 1.6 0.00 0.23 0.23 90 1024.9
20260509093539 11 178 0.0 1.6 0.00 0.23 0.23 91 1024.9
20260509093039 11 180 0.0 1.6 0.00 0.23 0.23 89 1024.9
20260509092537 11 180 0.0 0.0 0.00 0.23 0.23 89 1024.9
20260509092036 12 180 0.0 0.0 0.00 0.23 0.23 89 1024.9
20260509091541 12 180 0.0 0.0 0.00 0.23 0.23 89 1024.8
20260509090535 12 180 0.0 1.6 0.00 0.23 0.23 89 1024.7
20260509090038 12 180 0.0 1.6 0.00 0.23 0.23 89 1024.6
20260509085534 12 180 0.0 1.6 0.00 0.23 0.23 89 1024.6
20260509085034 12 180 0.0 1.6 0.00 0.23 0.23 89 1024.6
20260509084534 12 192 0.0 1.6 0.00 0.23 0.23 89 1024.5
20260509084034 12 192 0.0 1.6 0.00 0.23 0.23 89 1024.5
20260509083533 12 200 0.0 3.2 0.00 0.23 0.23 88 1024.4
20260509083034 12 284 0.0 1.6 0.00 0.23 0.23 88 1024.5
20260509082533 12 284 0.0 0.0 0.00 0.23 0.23 87 1024.4
20260509082033 12 284 0.0 0.0 0.00 0.23 0.23 87 1024.3
20260509081533 13 284 0.0 0.0 0.00 0.23 0.23 87 1024.3
20260509081033 13 284 0.0 0.0 0.00 0.23 0.23 87 1024.2
20260509080533 13 284 0.0 3.2 0.00 0.23 0.23 87 1024.1
20260509080032 13 284 0.0 3.2 0.00 0.23 0.23 87 1024.0
20260509075533 13 293 0.0 3.2 0.00 0.23 0.23 87 1023.9
20260509075034 13 215 0.0 4.8 0.00 0.23 0.23 87 1023.9
20260509074534 13 291 0.0 8.0 0.00 0.23 0.23 87 1023.9
20260509074033 13 283 0.0 3.2 0.00 0.23 0.23 86 1023.9
20260509073531 14 281 0.0 4.8 0.00 0.23 0.23 86 1023.8
20260509073032 14 320 0.0 4.8 0.00 0.23 0.23 86 1023.8
20260509072533 14 272 0.0 4.8 0.00 0.23 0.23 85 1023.8
20260509072033 14 284 0.0 4.8 0.00 0.23 0.23 85 1023.7
20260509071531 14 283 0.0 4.8 0.00 0.23 0.23 84 1023.7
20260509071031 15 206 1.6 4.8 0.00 0.23 0.23 84 1023.6
20260509070531 15 180 0.0 4.8 0.00 0.23 0.23 83 1023.5
20260509070031 15 157 0.0 4.8 0.00 0.23 0.23 82 1023.6
20260509065530 15 181 0.0 4.8 0.00 0.23 0.23 82 1023.6
20260509065030 15 201 0.0 8.0 0.00 0.23 0.23 81 1023.6
20260509064530 15 213 0.0 6.4 0.00 0.23 0.23 81 1023.5
20260509064032 15 292 0.0 8.0 0.00 0.23 0.23 81 1023.5
20260509063530 15 300 1.6 8.0 0.00 0.23 0.23 82 1023.4
20260509063035 15 289 0.0 11.3 0.00 0.23 0.23 82 1023.4
20260509062529 15 274 1.6 11.3 0.00 0.23 0.23 82 1023.4
20260509062029 15 268 3.2 9.7 0.00 0.23 0.23 82 1023.4
20260509061531 15 131 1.6 9.7 0.00 0.23 0.23 82 1023.5
20260509061029 15 285 1.6 6.4 0.00 0.23 0.23 82 1023.4
20260509060629 15 232 1.6 9.7 0.00 0.23 0.23 82 1023.3
20260509060029 15 254 3.2 9.7 0.00 0.23 0.23 81 1023.3
20260509055530 15 286 3.2 8.0 0.00 0.23 0.23 81 1023.3
20260509055028 15 167 1.6 8.0 0.00 0.23 0.23 82 1023.3
20260509054534 15 293 1.6 8.0 0.00 0.23 0.23 83 1023.3
20260509054028 15 285 1.6 6.4 0.00 0.23 0.23 83 1023.2
20260509053529 15 332 0.0 8.0 0.00 0.23 0.23 83 1023.2
20260509053028 15 284 1.6 11.3 0.00 0.23 0.23 82 1023.2
20260509052528 16 294 3.2 11.3 0.00 0.23 0.23 81 1023.2
20260509052032 16 278 1.6 8.0 0.00 0.23 0.23 81 1023.1
20260509051527 15 271 1.6 8.0 0.00 0.23 0.23 81 1023.1
20260509051027 15 297 1.6 8.0 0.00 0.23 0.23 81 1023.1
20260509050529 15 289 1.6 8.0 0.00 0.23 0.23 83 1023.1
20260509050029 15 288 1.6 8.0 0.00 0.23 0.23 84 1023.1
20260509045526 15 156 1.6 8.0 0.00 0.23 0.23 85 1023.2
20260509045026 15 294 3.2 8.0 0.00 0.23 0.23 84 1023.2
20260509044526 15 288 1.6 12.9 0.00 0.23 0.23 84 1023.3
20260509044026 15 253 6.4 12.9 0.00 0.23 0.23 83 1023.3
20260509043527 15 265 0.0 9.7 0.00 0.23 0.23 85 1023.3
20260509043026 15 259 1.6 12.9 0.00 0.23 0.23 84 1023.3
20260509042525 15 254 3.2 12.9 0.00 0.23 0.23 84 1023.2
20260509042025 15 191 3.2 9.7 0.00 0.23 0.23 83 1023.3
20260509041525 15 230 0.0 11.3 0.00 0.23 0.23 84 1023.2
20260509041028 15 308 3.2 14.5 0.00 0.23 0.23 83 1023.2
20260509040527 15 303 1.6 14.5 0.00 0.23 0.23 84 1023.2
20260509040125 15 299 1.6 9.7 0.00 0.23 0.23 85 1023.2
20260509035524 15 286 0.0 9.7 0.00 0.23 0.23 85 1023.2
20260509035024 15 294 1.6 9.7 0.00 0.23 0.23 85 1023.3
20260509034524 15 302 3.2 9.7 0.00 0.23 0.23 85 1023.3
20260509034024 15 336 3.2 9.7 0.00 0.23 0.23 84 1023.2
20260509033524 15 282 1.6 9.7 0.00 0.23 0.23 84 1023.3
20260509033024 15 279 3.2 9.7 0.00 0.23 0.23 83 1023.3
20260509032523 16 270 3.2 11.3 0.00 0.23 0.23 84 1023.3
20260509032022 15 284 3.2 11.3 0.00 0.23 0.23 85 1023.3
20260509031528 15 291 0.0 9.7 0.00 0.23 0.23 85 1023.4
20260509031022 15 301 3.2 9.7 0.00 0.23 0.23 84 1023.5
20260509030523 15 279 3.2 9.7 0.00 0.23 0.23 86 1023.6
20260509030022 16 279 0.0 14.5 0.00 0.23 0.23 88 1023.6
20260509025521 15 295 1.6 11.3 0.00 0.23 0.23 89 1023.7
20260509025019 15 286 3.2 9.7 0.00 0.23 0.23 88 1023.7
20260509024519 15 285 1.6 9.7 0.00 0.23 0.23 89 1023.8
20260509024020 15 276 1.6 9.7 0.00 0.23 0.23 90 1023.8
20260509023518 15 303 1.6 6.4 0.00 0.23 0.23 90 1023.8
20260509023017 14 291 1.6 9.7 0.00 0.23 0.23 91 1023.9
20260509022517 14 287 1.6 9.7 0.03 0.23 0.23 91 1023.9
20260509022017 14 272 0.0 8.0 0.03 0.23 0.23 91 1024.0
20260509021519 14 301 1.6 8.0 0.03 0.23 0.23 92 1024.1
20260509021016 14 293 3.2 8.0 0.03 0.23 0.23 92 1024.2
20260509020516 14 294 0.0 8.0 0.03 0.23 0.23 92 1024.2
20260509020017 15 283 0.0 4.8 0.03 0.23 0.23 94 1024.2
20260509015015 13 298 1.6 6.4 0.03 0.23 0.23 93 1024.3
20260509014531 13 316 0.0 6.4 0.03 0.23 0.23 93 1024.3
20260509014013 13 297 0.0 8.0 0.03 0.23 0.23 93 1024.4
20260509013513 13 275 1.6 8.0 0.03 0.23 0.23 93 1024.5
20260509013012 13 276 1.6 6.4 0.03 0.23 0.23 93 1024.5
20260509012512 13 285 0.0 6.4 0.00 0.23 0.20 93 1024.5
20260509012012 13 256 1.6 6.4 0.00 0.23 0.20 93 1024.5